www.pogodaiklimat.ru

Погода и климат >> Архив погоды >> Австралия >> Западная Австралия >> Леонора аэропорт


ПОГОДА в Леонора аэропорту

  • Прогноз погоды в Леонора аэропорту
  • Монитор погоды в Леонора аэропорту

АРХИВ ПОГОДЫ в Леонора аэропорту

Время (UTC), дата Ветер
(напр.,м/с)
 
Видим.   Явления Облачность Т
(С)
Тd
(С)
f
(%)
Тe
(С)
Тes
(С)
Комфортность P
(гПа)
Po
(гПа)
Тmin
(С)
Tmax
(С)
R
(мм)
R24
(мм)
S
(см)
07 18.06 ЮВ 3 н/о н/о +16.8 +0.5 33 +17 +17 1023.9 979.9
09 18.06 ЮВ 3 н/о н/о +15.1 +0.5 37 +15 +15 1023.7 979.7
10 18.06 ЮВ 2 н/о н/о +13.0 +0.4 42 +13 +13 1023.9 979.9
12 18.06 ЮВ 3 н/о н/о +10.6 +0.1 48 +9 +9 1024.1 980.1
13 18.06 ЮВ 4 н/о н/о +9.4 -0.2 51 +7 +7 1024.2 980.2 +17.2
15 18.06 ЮВ 3 н/о н/о +7.4 -0.5 57 +5 +5 1024.3 980.3
16 18.06 ЮВ 3 н/о н/о +7.0 -0.9 57 +4 +4 1024.2 980.2
18 18.06 ЮВ 4 н/о н/о +5.7 -1.2 61 +2 +2 1024.1 980.1
19 18.06 В 3 н/о н/о +5.2 -1.5 62 +2 +2 1024.1 980.1
21 18.06 В 4 н/о н/о +3.9 -1.9 66 0 0 1023.9 979.9
22 18.06 Ю 2 н/о н/о +2.2 -2.9 69 -0 -0 1024.7 980.7
00 19.06 В 3 н/о н/о +5.2 -1.5 62 +2 +2 1025.5 981.5
01 19.06 В 4 н/о н/о +9.4 -1.0 48 +7 +7 1025.6 981.6 +2.2
03 19.06 В 5 н/о н/о +14.5 0.0 37 +13 +13 1024.5 980.5
04 19.06 В 4 н/о н/о +15.4 0.0 35 +15 +15 1023.3 979.4
06 19.06 В 4 н/о н/о +17.5 +0.2 31 +17 +17 1021.4 977.5
07 19.06 В 4 н/о н/о +17.3 0.0 31 +17 +17 1021.1 977.3
09 19.06 В 4 н/о н/о +16.1 -0.6 32 +16 +16 1020.7 976.9
10 19.06 ЮВ 4 н/о н/о +14.1 -0.7 36 +13 +13 1020.9 977.1
12 19.06 ЮВ 4 н/о н/о +11.2 -1.5 41 +10 +10 1021.9 978.0
13 19.06 ЮВ 4 н/о н/о +10.5 -1.5 43 +8 +8 1022.1 978.2 +18.0
15 19.06 ЮВ 4 н/о н/о +8.4 -2.0 48 +6 +6 1022.6 978.7
16 19.06 ЮВ 4 н/о н/о +8.2 -1.9 49 +5 +5 1022.8 978.9
18 19.06 ЮВ 4 н/о н/о +7.6 -2.1 50 +5 +5 1022.7 978.8
19 19.06 ЮВ 4 н/о 4/0 2000 м
[]
+6.9 -2.3 52 +4 +4 1022.7 978.8
21 19.06 ЮВ 4 н/о н/о +6.0 -2.6 54 +3 +3 1022.3 978.4
22 19.06 В 4 н/о 4/0
[]
+5.5 -2.8 55 +2 +2 1022.5 978.6
00 20.06 ЮВ 4 н/о н/о +7.7 -2.0 50 +5 +5 1022.6 978.7
01 20.06 В 5 н/о н/о +11.9 -1.3 40 +10 +10 1022.4 978.5 +5.2
03 20.06 СВ 5 н/о н/о +19.2 -0.2 27 +19 +19 1020.8 977.0
04 20.06 СВ 5 н/о н/о +20.9 +1.2 27 +21 +21 комфорт 1019.8 976.0
06 20.06 С 5 н/о н/о +23.0 +1.9 25 +22 +22 комфорт 1018.0 974.3
07 20.06 В 4 н/о н/о +23.2 +1.5 24 +22 +22 комфорт 1017.6 973.9
09 20.06 В 4 н/о н/о +21.5 +1.7 27 +21 +21 комфорт 1017.9 974.2
10 20.06 В 3 н/о 6/0
[]
+20.0 +1.9 30 +21 +21 комфорт 1018.2 974.5
12 20.06 В 5 н/о н/о +18.0 +1.5 33 +18 +18 1018.9 975.1
13 20.06 В 5 н/о 1/0
[]
+17.6 +1.2 33 +17 +17 1019.1 975.3 +23.6
15 20.06 В 4 н/о н/о +15.4 +1.2 38 +15 +15 1018.9 975.1
16 20.06 В 4 н/о 1/0
[]
+14.8 +1.0 39 +14 +14 1018.5 974.8
18 20.06 В 6 н/о н/о +14.3 +0.6 39 +13 +13 1017.7 974.0
19 20.06 СВ 6 н/о 10/0
[]
+14.3 +0.6 39 +13 +13 1017.3 973.6
21 20.06 СВ 4 н/о н/о +14.3 +0.9 40 +13 +13 1017.6 973.9
22 20.06 СВ 4 н/о 10/0
[]
+14.5 +1.1 40 +14 +14 1017.9 974.2
00 21.06 СВ 5 н/о н/о +16.2 +1.1 36 +15 +15 1018.5 974.8
01 21.06 С 4 н/о 3/0
[]
+17.6 +2.0 35 +17 +19 1019.0 975.2 +7.7
03 21.06 С 6 н/о н/о +21.5 +7.7 41 +22 +22 комфорт 1017.8 974.1
04 21.06 С 6 н/о 10/0
[]
+23.4 +8.3 38 +25 +26 комфорт 1016.9 973.2
06 21.06 С 9 н/о н/о +17.1 +13.0 77 +16 +16 1015.8 972.2
07 21.06 СВ 5 н/о {туман} 10/0 2000 м
[]
+18.4 +11.7 65 +19 +19 1016.6 972.9
09 21.06 С 8 н/о н/о +18.2 +12.6 70 +18 +18 1017.1 973.4
10 21.06 С 8 н/о н/о +17.0 +12.5 75 +16 +16 1017.7 974.0
12 21.06 С 5 н/о н/о +15.6 +11.4 76 +15 +15 1019.0 975.2
13 21.06 С 5 н/о {туман} 10/0
[]
+16.3 +11.0 71 +15 +15 1018.5 974.8 +24.5
15 21.06 С 5 н/о н/о +15.4 +9.7 69 +14 +14 1018.9 975.1
16 21.06 С 5 н/о 5/0
[]
+14.7 +9.3 70 +13 +13 1018.1 974.4
18 21.06 С 3 н/о н/о +14.2 +9.6 74 +13 +13 1018.2 974.5
19 21.06 С 5 н/о 10/0
[]
+14.2 +9.8 75 +13 +13 1017.9 974.2
21 21.06 С 4 н/о н/о +13.6 +8.2 70 +12 +12 1017.8 974.1
22 21.06 С 4 н/о 9/0
[]
+13.5 +7.7 68 +12 +12 1018.0 974.3
00 22.06 С 6 н/о н/о +15.1 +5.9 54 +14 +14 1018.5 974.8
01 22.06 С 7 н/о н/о +17.5 +5.4 45 +17 +17 1018.7 975.0 +13.1
03 22.06 СЗ 7 н/о н/о +21.3 +7.5 41 +22 +22 комфорт 1017.8 974.1
04 22.06 С 7 н/о н/о +22.4 +7.4 38 +23 +23 комфорт 1016.8 973.1
06 22.06 С 7 н/о н/о +24.0 +7.6 35 +24 +24 комфорт 1014.9 971.3
07 22.06 С 6 н/о н/о +24.3 +7.0 33 +24 +24 комфорт 1014.7 971.1
09 22.06 С 5 н/о н/о +22.3 +3.9 30 +22 +22 комфорт 1014.8 971.2
10 22.06 С 4 н/о н/о +20.3 +4.4 35 +21 +21 комфорт 1015.6 972.0
12 22.06 С 5 н/о н/о +18.7 +3.7 37 +19 +19 1016.2 972.6
13 22.06 С 6 н/о 9/0
[]
+18.1 +4.3 40 +18 +18 1016.0 972.4 +24.9
15 22.06 С 6 н/о н/о +18.9 +3.5 36 +19 +19 1015.7 972.1
16 22.06 С 7 н/о 10/0
[]
+19.3 +2.6 33 +19 +19 1015.2 971.6
18 22.06 С 7 н/о н/о +18.6 +2.0 33 +18 +18 1015.1 971.5
19 22.06 С 8 н/о 9/0
[]
+18.3 +1.8 33 +18 +18 1015.0 971.4
21 22.06 СЗ 5 н/о н/о +17.5 +1.9 35 +17 +17 1015.9 972.3
22 22.06 С 4 н/о 10/0
[]
+17.3 +2.1 36 +17 +17 1015.9 972.3
00 23.06 СЗ 3 н/о н/о +16.3 +5.3 48 +16 +16 1017.4 973.7
01 23.06 С 4 н/о 10/0 2000 м
[]
+16.7 +5.3 47 +16 +17 1017.1 973.4 +15.1
03 23.06 С 5 н/о н/о +19.6 +1.1 29 +20 +20 1016.2 972.6
04 23.06 С 5 н/о 10/10 1500 м
[]
+18.0 +5.2 43 +18 +18 1016.1 972.5
06 23.06 СЗ 2 н/о н/о +16.2 +9.4 64 +16 +16 1015.2 971.6
07 23.06 СЗ 2 н/о в посл. час дождь {туман} 10/0 2000 м
[]
+16.1 +10.8 71 +16 +18 1015.1 971.5
09 23.06 СЗ 3 н/о н/о +14.2 +11.7 85 +13 +13 1017.2 973.5
10 23.06 С 5 н/о в посл. час дождь {туман} 10/0 2000 м
[]
+14.0 +11.5 85 +12 +12 1016.8 973.1
12 23.06 С 5 н/о н/о +13.8 +11.7 87 +12 +12 1017.3 973.6
13 23.06 С 4 н/о в посл. час дождь {туман} 10/10 1500 м
[]
+13.7 +11.2 85 +12 +12 1017.1 973.4 +19.7
15 23.06 СЗ 9 н/о н/о +13.8 +12.5 92 +11 +11 1017.5 973.8
16 23.06 СЗ 7 н/о в посл. час дождь {туман} 10/10 300 м
[]
+14.2 +12.4 89 +12 +12 1017.7 974.0
18 23.06 СЗ 3 н/о н/о +13.5 +12.7 95 +12 +12 1018.0 974.3
19 23.06 СЗ 3 н/о {туман} 9/9 1500 м
[]
+13.2 +12.6 96 +12 +12 1018.4 974.7
21 23.06 СЗ 3 н/о н/о +12.2 +11.9 98 +11 +11 1019.3 975.5
22 23.06 СЗ 3 н/о н/о +11.5 +11.3 99 +10 +10 1020.0 976.2
00 24.06 З 3 н/о н/о +11.4 +11.4 100 +10 +10 1021.8 977.9
01 24.06 З 4 н/о 1/1 600 м
[]
+13.3 +11.5 89 +12 +14 1022.5 978.6 +10.7
03 24.06 З 3 н/о н/о +15.7 +9.4 66 +15 +15 1022.4 978.5
04 24.06 З 3 н/о 4/4 1000 м
[]
+17.0 +8.2 56 +17 +21 1021.7 977.8
06 24.06 З 3 н/о н/о +18.5 +7.0 47 +19 +19 1020.8 977.0
07 24.06 З 4 н/о н/о +18.5 +6.0 44 +19 +19 1020.9 977.1
09 24.06 СЗ 3 н/о н/о +17.0 +7.9 55 +17 +17 1021.7 977.8
10 24.06 штиль 0 н/о н/о +14.5 +9.1 70 +14 +14 1022.4 978.5
12 24.06 штиль 0 н/о н/о +11.9 +9.5 85 +11 +11 1024.1 980.1
13 24.06 В 2 н/о н/о +11.3 +9.2 87 +10 +10 1024.5 980.5 +19.1
15 24.06 ЮВ 1 н/о н/о +9.0 +7.1 88 +8 +8 1024.8 980.8
16 24.06 ЮВ 1 н/о в посл. час дождь {туман} н/о +8.5 +7.0 90 +8 +8 1024.4 980.4
18 24.06 ЮВ 1 н/о н/о +7.5 +6.3 92 +6 +6 1024.2 980.2
19 24.06 ЮВ 2 н/о {туман} н/о +7.5 +6.4 93 +5 +5 1023.9 979.9
21 24.06 В 2 н/о н/о +7.3 +5.8 90 +6 +6 1023.9 979.9
22 24.06 ЮВ 2 н/о н/о +6.6 +5.4 92 +5 +5 1024.2 980.2
00 25.06 В 2 н/о н/о +9.2 +6.6 84 +8 +8 1024.9 980.9
01 25.06 СВ 2 н/о н/о +13.7 +7.9 68 +14 +14 1025.0 981.0 +6.3
03 25.06 СВ 4 н/о н/о +17.6 +7.6 52 +17 +17 1024.6 980.6
04 25.06 С 4 н/о н/о +18.9 +7.7 48 +19 +19 1023.4 979.5
06 25.06 СВ 3 н/о н/о +20.8 +7.8 43 +22 +22 комфорт 1021.4 977.5

 

Местоположение метеостанции Леонора аэропорт (Западная Австралия, Австралия): широта -28.88 долгота 121.32 высота над уровнем моря 370 м.

В архиве по умолчанию представлена погода в Леонора аэропорту за последнюю неделю. Архивные данные за месяц целиком и за предыдущие месяцы, начиная с января 2011 года, Вы можете получить, выбрав интересующий диапазон дат из раскрывающегося списка и нажав кнопку "Ввод!".


*Определитесь, кто Вы:
робот инопланетянин человек

Внимание! Время в таблицах - всемирное. Для получения местного времени необходимо прибавить поправку, которая равна 8 ч.

Смотрите также архив погоды в соседних городах и на ближайших метеорологических станциях:

Погода в Лавертоне (Западная Австралия, Австралия) (110 км)
Погода в Леинстере (Западная Австралия, Австралия) (130 км)
Погода в Калгурли-Боулдере (Западная Австралия, Австралия) (212 км)
Погода в Саутерн Кросс (Западная Австралия, Австралия) (323 км)
Погода в Маунт Магнет аэропорту (Западная Австралия, Австралия) (352 км)
Погода в Микатарре (Западная Австралия, Австралия) (372 км)
Погода в Норсмане (Западная Австралия, Австралия) (374 км)
Погода в Салмон Гамс (Западная Австралия, Австралия) (457 км)
Погода в Дауоллину (Западная Австралия, Австралия) (476 км)
Погода в Кандердине (Западная Австралия, Австралия) (498 км)

Пояснения к столбцам:

Ветер - указаны скорость ветра в м/с - средняя за 10 мин, порывы в срок и между сроками (в фигурных скобках) и направление, откуда дует ветер: С - северный, СВ - северо-восточный, В - восточный, ЮВ - юго-восточный, Ю - южный, ЮЗ - юго-западный, З - западный, СЗ - северо-западный.
Видимость - горизонтальная дальность видимости в метрах или километрах. При видимости от 1 до 10 км при отсутствии осадков обычно наблюдается дымка, при ухудшении видимости до 1 км и менее - туман. В сухую погоду видимость может ухудшаться дымом, пылью или мглою.
Явления - указаны атмосферные явления, наблюдавшиеся в срок или в последний час перед сроком; фигурными скобками обозначены явления, наблюдавшиеся между сроками (за 1-3 часа до срока); квадратными скобками обозначены град или гололедные отложения с указанием их диаметра в мм.
Облачность - указаны через наклонную черту общая и нижняя облачность в баллах и высота нижней границы облаков в метрах; квадратными скобками обозначены формы облаков: Ci - перистые, Cs - перисто-слоистые, Cc - перисто-кучевые, Ac - высококучевые, As - высокослоистые, Sc - слоисто-кучевые, Ns - слоисто-дождевые, Cu - кучевые, Cb - кучево-дождевые. Подробнее классификацию облаков см. в Атласе облаков (PDF).
T - Температура воздуха - температура, измеренная на высоте 2 м над землей.
Td - Температура точки росы - температура, при понижении до которой содержащийся в воздухе водяной пар достигнет насыщения.
f - Относительная влажность воздуха - влажноcть воздуха, измеренная на высоте 2 м над землей.
Te - Эффективная температура - температура, которую ощущает одетый по сезону человек в тени. Характеристика душности погоды. При расчете учитывается влияние влажности воздуха и скорости ветра на теплоощущения человека.
Tes - Эффективная температура на солнце - температура, которую ощущает человек, с поправкой на солнечный нагрев. Характеристика знойности погоды. Зависит от высоты солнца над горизонтом, облачности и скорости ветра. Ночью, в пасмурную погоду, а также при ветре 12 м/с и более поправка равна нулю.
P - Атмосферное давление - приведенное к уровню моря атмосферное давление.
Po - Атмосферное давление - измеренное на уровне метеостанции атмосферное давление.
Tmin - Минимальная температура - минимум температуры воздуха на высоте 2 м над землей.
Tmax - Максимальная температура - максимум температуры воздуха на высоте 2 м над землей.
R - Количество осадков - Количество выпавших осадков за период времени, мм. При наведении курсора мыши на число - период времени, за который выпало указанное количество осадков.
R24 - Количество осадков - Количество выпавших осадков за 24 часа, мм.
S - Снежный покров - Высота снежного покрова, см. При наведении курсора мыши на число - состояние снежного покрова и степень покрытия местности в баллах.